Time,TemperatureF,DewpointF,PressureIn,WindDirection,WindDirectionDegrees,WindSpeedMPH,WindSpeedGustMPH,Humidity,HourlyPrecipIn,Conditions,Clouds,dailyrainin,SoftwareType,DateUTC
2013-03-07 00:00:00,31.2,25.4,29.77,WNW,295,1.0,19.0,79,0.00,,,0.00,Wunderground v.1.15,2013-03-07 07:00:00,
2013-03-07 00:10:00,32.8,21.2,29.77,SSW,207,3.0,3.0,62,0.00,,,0.00,Wunderground v.1.15,2013-03-07 07:10:00,
2013-03-07 00:15:00,33.2,21.2,29.77,SSE,165,3.0,19.0,61,0.00,,,0.00,Wunderground v.1.15,2013-03-07 07:15:00,
2013-03-07 00:20:00,33.4,21.0,29.78,SSE,158,3.0,3.0,60,0.00,,,0.00,Wunderground v.1.15,2013-03-07 07:20:00,
2013-03-07 00:25:00,33.6,21.2,29.78,SSE,155,3.0,19.0,60,0.00,,,0.00,Wunderground v.1.15,2013-03-07 07:25:00,
2013-03-07 00:34:00,33.3,23.2,29.79,South,170,5.0,19.0,66,0.00,,,0.00,Wunderground v.1.15,2013-03-07 07:34:00,
2013-03-07 00:39:00,33.2,22.7,29.79,SSW,207,7.0,7.0,65,0.00,,,0.00,Wunderground v.1.15,2013-03-07 07:39:00,
2013-03-07 00:44:00,33.3,22.4,29.79,SSW,193,7.0,19.0,64,0.00,,,0.00,Wunderground v.1.15,2013-03-07 07:44:00,
2013-03-07 00:50:00,33.5,22.2,29.79,SSE,149,6.0,19.0,63,0.00,,,0.00,Wunderground v.1.15,2013-03-07 07:50:00,
2013-03-07 00:55:00,33.5,22.2,29.80,South,179,5.0,19.0,63,0.00,,,0.00,Wunderground v.1.15,2013-03-07 07:55:00,
2013-03-07 01:00:00,33.5,22.2,29.80,SSW,201,6.0,6.0,63,0.00,,,0.00,Wunderground v.1.15,2013-03-07 08:00:00,
2013-03-07 01:05:00,33.4,22.1,29.80,South,188,6.0,10.0,63,0.00,,,0.00,Wunderground v.1.15,2013-03-07 08:05:00,
2013-03-07 01:14:00,33.3,21.7,29.81,South,179,5.0,19.0,62,0.00,,,0.00,Wunderground v.1.15,2013-03-07 08:14:00,
2013-03-07 01:20:00,33.2,21.6,29.81,SW,218,5.0,19.0,62,0.00,,,0.00,Wunderground v.1.15,2013-03-07 08:20:00,
2013-03-07 01:25:00,33.3,21.3,29.81,South,170,5.0,19.0,61,0.00,,,0.00,Wunderground v.1.15,2013-03-07 08:25:00,
2013-03-07 01:35:00,33.5,20.3,29.82,SSW,210,6.0,19.0,58,0.00,,,0.00,Wunderground v.1.15,2013-03-07 08:35:00,
2013-03-07 01:40:00,33.4,20.6,29.82,SW,236,6.0,19.0,59,0.00,,,0.00,Wunderground v.1.15,2013-03-07 08:40:00,
2013-03-07 01:45:00,33.3,20.1,29.82,WSW,248,6.0,19.0,58,0.00,,,0.00,Wunderground v.1.15,2013-03-07 08:45:00,
2013-03-07 01:55:00,32.9,20.1,29.82,SW,221,4.0,19.0,59,0.00,,,0.00,Wunderground v.1.15,2013-03-07 08:55:00,
2013-03-07 02:00:00,32.9,20.1,29.82,West,274,3.0,3.0,59,0.00,,,0.00,Wunderground v.1.15,2013-03-07 09:00:00,
2013-03-07 02:10:00,31.6,20.4,29.83,South,169,1.0,1.0,63,0.00,,,0.00,Wunderground v.1.15,2013-03-07 09:10:00,
2013-03-07 02:15:00,31.6,19.7,29.82,SSW,194,2.0,11.0,61,0.00,,,0.00,Wunderground v.1.15,2013-03-07 09:15:00,
2013-03-07 02:20:00,32.2,19.9,29.82,SSW,198,5.0,19.0,60,0.00,,,0.00,Wunderground v.1.15,2013-03-07 09:20:00,
2013-03-07 02:30:00,32.5,20.1,29.83,SW,214,8.0,19.0,60,0.00,,,0.00,Wunderground v.1.15,2013-03-07 09:30:00,
2013-03-07 02:39:00,32.6,19.8,29.84,WNW,294,7.0,7.0,59,0.00,,,0.00,Wunderground v.1.15,2013-03-07 09:39:00,
2013-03-07 02:45:00,32.4,19.3,29.85,NW,319,4.0,19.0,58,0.00,,,0.00,Wunderground v.1.15,2013-03-07 09:45:00,
2013-03-07 02:50:00,32.1,18.6,29.86,NW,314,3.0,19.0,57,0.00,,,0.00,Wunderground v.1.15,2013-03-07 09:50:00,
2013-03-07 02:55:00,30.7,22.1,29.86,West,277,5.0,19.0,70,0.00,,,0.00,Wunderground v.1.15,2013-03-07 09:55:00,
2013-03-07 03:00:00,30.6,20.9,29.87,West,280,9.0,19.0,67,0.00,,,0.00,Wunderground v.1.15,2013-03-07 10:00:00,
2013-03-07 03:05:00,30.9,20.5,29.87,West,278,10.0,19.0,65,0.00,,,0.00,Wunderground v.1.15,2013-03-07 10:05:00,
2013-03-07 03:10:00,31.0,19.9,29.86,WNW,291,9.0,19.0,63,0.00,,,0.00,Wunderground v.1.15,2013-03-07 10:10:00,
2013-03-07 03:20:00,31.6,18.5,29.86,West,269,6.0,19.0,58,0.00,,,0.00,Wunderground v.1.15,2013-03-07 10:20:00,
2013-03-07 03:25:00,31.5,17.6,29.86,NW,307,7.0,19.0,56,0.00,,,0.00,Wunderground v.1.15,2013-03-07 10:25:00,
2013-03-07 03:35:00,31.4,17.1,29.86,WSW,250,6.0,19.0,55,0.00,,,0.00,Wunderground v.1.15,2013-03-07 10:35:00,
2013-03-07 03:40:00,31.2,17.3,29.87,SSW,205,5.0,5.0,56,0.00,,,0.00,Wunderground v.1.15,2013-03-07 10:40:00,
2013-03-07 03:50:00,30.0,20.7,29.88,NNE,33,3.0,19.0,68,0.00,,,0.00,Wunderground v.1.15,2013-03-07 10:50:00,
2013-03-07 03:55:00,29.8,20.9,29.88,NE,50,4.0,19.0,69,0.00,,,0.00,Wunderground v.1.15,2013-03-07 10:55:00,
2013-03-07 04:00:00,29.4,21.5,29.89,ENE,58,5.0,19.0,72,0.00,,,0.00,Wunderground v.1.15,2013-03-07 11:00:00,
2013-03-07 04:05:00,29.3,21.1,29.89,ESE,120,5.0,19.0,71,0.00,,,0.00,Wunderground v.1.15,2013-03-07 11:05:00,
2013-03-07 04:10:00,29.4,20.5,29.89,ENE,60,4.0,4.0,69,0.00,,,0.00,Wunderground v.1.15,2013-03-07 11:10:00,
2013-03-07 04:15:00,29.0,20.8,29.89,NW,304,2.0,19.0,71,0.00,,,0.00,Wunderground v.1.15,2013-03-07 11:15:00,
2013-03-07 04:20:00,28.4,20.8,29.89,NE,53,1.0,1.0,73,0.00,,,0.00,Wunderground v.1.15,2013-03-07 11:20:00,
2013-03-07 04:30:00,28.0,20.1,29.90,ENE,69,3.0,19.0,72,0.00,,,0.00,Wunderground v.1.15,2013-03-07 11:30:00,
2013-03-07 04:35:00,28.3,19.8,29.90,ESE,111,3.0,19.0,70,0.00,,,0.00,Wunderground v.1.15,2013-03-07 11:35:00,
2013-03-07 04:40:00,28.3,20.1,29.91,ENE,65,2.0,19.0,71,0.00,,,0.00,Wunderground v.1.15,2013-03-07 11:40:00,
2013-03-07 04:45:00,28.2,20.0,29.91,East,89,2.0,19.0,71,0.00,,,0.00,Wunderground v.1.15,2013-03-07 11:45:00,
2013-03-07 04:55:00,27.7,19.8,29.92,SE,140,1.0,19.0,72,0.00,,,0.00,Wunderground v.1.15,2013-03-07 11:55:00,
2013-03-07 05:04:00,27.2,20.0,29.92,NNW,338,2.0,19.0,74,0.00,,,0.00,Wunderground v.1.15,2013-03-07 12:04:00,
2013-03-07 05:10:00,27.0,19.8,29.92,NNW,338,1.0,19.0,74,0.00,,,0.00,Wunderground v.1.15,2013-03-07 12:10:00,
2013-03-07 05:15:00,26.7,19.8,29.92,SSW,209,0.0,19.0,75,0.00,,,0.00,Wunderground v.1.15,2013-03-07 12:15:00,
2013-03-07 05:25:00,26.5,19.3,29.93,WSW,240,0.0,19.0,74,0.00,,,0.00,Wunderground v.1.15,2013-03-07 12:25:00,
2013-03-07 05:30:00,26.5,19.3,29.93,SE,136,1.0,19.0,74,0.00,,,0.00,Wunderground v.1.15,2013-03-07 12:30:00,
2013-03-07 05:35:00,26.7,19.2,29.93,SE,124,1.0,19.0,73,0.00,,,0.00,Wunderground v.1.15,2013-03-07 12:35:00,
2013-03-07 05:40:00,26.7,19.5,29.93,ESE,115,1.0,1.0,74,0.00,,,0.00,Wunderground v.1.15,2013-03-07 12:40:00,
2013-03-07 05:45:00,26.4,19.5,29.93,ESE,114,0.0,19.0,75,0.00,,,0.00,Wunderground v.1.15,2013-03-07 12:45:00,
2013-03-07 05:50:00,26.2,19.4,29.93,WNW,291,0.0,19.0,75,0.00,,,0.00,Wunderground v.1.15,2013-03-07 12:50:00,
2013-03-07 05:59:00,26.5,19.3,29.94,WNW,293,0.0,19.0,74,0.00,,,0.00,Wunderground v.1.15,2013-03-07 12:59:00,
2013-03-07 06:04:00,26.4,19.2,29.94,WSW,251,1.0,19.0,74,0.00,,,0.00,Wunderground v.1.15,2013-03-07 13:04:00,
2013-03-07 06:10:00,26.3,18.8,29.93,WSW,242,2.0,19.0,73,0.00,,,0.00,Wunderground v.1.15,2013-03-07 13:10:00,
2013-03-07 06:15:00,26.4,18.6,29.93,West,281,2.0,19.0,72,0.00,,,0.00,Wunderground v.1.15,2013-03-07 13:15:00,
2013-03-07 06:20:00,26.4,18.6,29.93,WSW,256,3.0,19.0,72,0.00,,,0.00,Wunderground v.1.15,2013-03-07 13:20:00,
2013-03-07 06:25:00,26.9,19.1,29.93,West,277,4.0,19.0,72,0.00,,,0.00,Wunderground v.1.15,2013-03-07 13:25:00,
2013-03-07 06:30:00,27.6,19.4,29.94,WNW,298,6.0,6.0,71,0.00,,,0.00,Wunderground v.1.15,2013-03-07 13:30:00,
2013-03-07 06:40:00,27.4,19.2,29.94,West,273,3.0,3.0,71,0.00,,,0.00,Wunderground v.1.15,2013-03-07 13:40:00,
2013-03-07 06:49:00,26.5,18.4,29.94,WSW,248,2.0,19.0,71,0.00,,,0.00,Wunderground v.1.15,2013-03-07 13:49:00,
2013-03-07 06:55:00,26.3,18.5,29.95,SW,236,2.0,19.0,72,0.00,,,0.00,Wunderground v.1.15,2013-03-07 13:55:00,
2013-03-07 07:00:00,26.1,18.6,29.95,WSW,249,2.0,2.0,73,0.00,,,0.00,Wunderground v.1.15,2013-03-07 14:00:00,
2013-03-07 07:05:00,25.9,18.1,29.95,West,263,1.0,19.0,72,0.00,,,0.00,Wunderground v.1.15,2013-03-07 14:05:00,
2013-03-07 07:10:00,25.7,17.9,29.96,WSW,250,0.0,19.0,72,0.00,,,0.00,Wunderground v.1.15,2013-03-07 14:10:00,
2013-03-07 07:15:00,25.9,17.8,29.96,WSW,252,1.0,19.0,71,0.00,,,0.00,Wunderground v.1.15,2013-03-07 14:15:00,
2013-03-07 07:24:00,25.9,17.1,29.96,West,274,2.0,19.0,69,0.00,,,0.00,Wunderground v.1.15,2013-03-07 14:24:00,
2013-03-07 07:30:00,25.9,16.8,29.96,WNW,284,1.0,1.0,68,0.00,,,0.00,Wunderground v.1.15,2013-03-07 14:30:00,
2013-03-07 07:35:00,26.0,16.9,29.96,WSW,255,0.0,19.0,68,0.00,,,0.00,Wunderground v.1.15,2013-03-07 14:35:00,
2013-03-07 07:40:00,25.7,16.9,29.97,SE,134,0.0,19.0,69,0.00,,,0.00,Wunderground v.1.15,2013-03-07 14:40:00,
2013-03-07 07:45:00,25.6,16.8,29.97,ESE,105,0.0,19.0,69,0.00,,,0.00,Wunderground v.1.15,2013-03-07 14:45:00,
2013-03-07 07:50:00,25.4,16.6,29.97,East,93,0.0,19.0,69,0.00,,,0.00,Wunderground v.1.15,2013-03-07 14:50:00,
2013-03-07 07:55:00,25.3,16.9,29.97,East,92,0.0,19.0,70,0.00,,,0.00,Wunderground v.1.15,2013-03-07 14:55:00,
2013-03-07 08:04:00,25.9,18.1,29.98,WNW,299,0.0,19.0,72,0.00,,,0.00,Wunderground v.1.15,2013-03-07 15:04:00,
2013-03-07 08:10:00,26.7,18.2,29.98,ESE,119,0.0,19.0,70,0.00,,,0.00,Wunderground v.1.15,2013-03-07 15:10:00,
2013-03-07 08:15:00,27.5,18.7,29.99,SW,218,1.0,19.0,69,0.00,,,0.00,Wunderground v.1.15,2013-03-07 15:15:00,
2013-03-07 08:20:00,27.6,18.8,29.99,SW,228,1.0,1.0,69,0.00,,,0.00,Wunderground v.1.15,2013-03-07 15:20:00,
2013-03-07 08:25:00,28.2,18.3,29.99,West,281,1.0,19.0,66,0.00,,,0.00,Wunderground v.1.15,2013-03-07 15:25:00,
2013-03-07 08:30:00,28.7,18.4,29.99,SSW,208,0.0,19.0,65,0.00,,,0.00,Wunderground v.1.15,2013-03-07 15:30:00,
2013-03-07 08:40:00,30.9,19.8,29.99,ESE,117,0.0,19.0,63,0.00,,,0.00,Wunderground v.1.15,2013-03-07 15:40:00,
2013-03-07 08:45:00,31.9,20.3,29.99,East,98,0.0,19.0,62,0.00,,,0.00,Wunderground v.1.15,2013-03-07 15:45:00,
2013-03-07 08:50:00,33.2,19.6,29.99,East,97,0.0,19.0,57,0.00,,,0.00,Wunderground v.1.15,2013-03-07 15:50:00,
2013-03-07 08:55:00,33.9,17.7,29.99,ENE,58,0.0,19.0,51,0.00,,,0.00,Wunderground v.1.15,2013-03-07 15:55:00,
2013-03-07 09:00:00,34.0,18.2,29.99,ENE,58,0.0,19.0,52,0.00,,,0.00,Wunderground v.1.15,2013-03-07 16:00:00,
2013-03-07 09:10:00,33.8,17.6,29.99,East,98,2.0,19.0,51,0.00,,,0.00,Wunderground v.1.15,2013-03-07 16:10:00,
2013-03-07 09:15:00,33.7,17.9,29.99,ENE,68,2.0,19.0,52,0.00,,,0.00,Wunderground v.1.15,2013-03-07 16:15:00,
2013-03-07 09:20:00,33.8,17.6,29.99,SE,124,2.0,19.0,51,0.00,,,0.00,Wunderground v.1.15,2013-03-07 16:20:00,
2013-03-07 09:25:00,33.9,17.7,29.99,SE,141,3.0,19.0,51,0.00,,,0.00,Wunderground v.1.15,2013-03-07 16:25:00,
2013-03-07 09:35:00,33.9,16.3,29.99,East,79,3.0,19.0,48,0.00,,,0.00,Wunderground v.1.15,2013-03-07 16:35:00,
2013-03-07 09:44:00,34.1,18.3,29.99,ESE,109,5.0,19.0,52,0.00,,,0.00,Wunderground v.1.15,2013-03-07 16:44:00,
2013-03-07 09:50:00,34.3,18.0,29.99,SE,134,5.0,5.0,51,0.00,,,0.00,Wunderground v.1.15,2013-03-07 16:50:00,
2013-03-07 09:55:00,34.2,17.9,29.99,East,86,4.0,6.0,51,0.00,,,0.00,Wunderground v.1.15,2013-03-07 16:55:00,
2013-03-07 10:00:00,34.5,16.3,29.99,South,172,4.0,4.0,47,0.00,,,0.00,Wunderground v.1.15,2013-03-07 17:00:00,
2013-03-07 10:05:00,35.0,17.7,29.99,SSE,165,4.0,19.0,49,0.00,,,0.00,Wunderground v.1.15,2013-03-07 17:05:00,
2013-03-07 10:10:00,34.7,17.5,29.99,ESE,105,3.0,3.0,49,0.00,,,0.00,Wunderground v.1.15,2013-03-07 17:10:00,
2013-03-07 10:20:00,35.3,17.1,29.99,SE,136,4.0,19.0,47,0.00,,,0.00,Wunderground v.1.15,2013-03-07 17:20:00,
2013-03-07 10:25:00,35.7,16.4,29.99,SE,131,4.0,19.0,45,0.00,,,0.00,Wunderground v.1.15,2013-03-07 17:25:00,
2013-03-07 10:35:00,35.6,16.8,29.99,SE,138,3.0,19.0,46,0.00,,,0.00,Wunderground v.1.15,2013-03-07 17:35:00,
2013-03-07 10:40:00,35.7,17.9,29.99,SW,218,3.0,19.0,48,0.00,,,0.00,Wunderground v.1.15,2013-03-07 17:40:00,
2013-03-07 10:45:00,36.2,18.4,29.99,SE,143,3.0,19.0,48,0.00,,,0.00,Wunderground v.1.15,2013-03-07 17:45:00,
2013-03-07 10:50:00,36.4,19.0,29.99,SSE,153,4.0,19.0,49,0.00,,,0.00,Wunderground v.1.15,2013-03-07 17:50:00,
2013-03-07 10:59:00,36.3,18.5,29.99,South,169,6.0,19.0,48,0.00,,,0.00,Wunderground v.1.15,2013-03-07 17:59:00,
2013-03-07 11:05:00,36.2,18.4,29.99,SSE,153,8.0,19.0,48,0.00,,,0.00,Wunderground v.1.15,2013-03-07 18:05:00,
2013-03-07 11:10:00,36.2,18.4,29.99,SSE,162,8.0,19.0,48,0.00,,,0.00,Wunderground v.1.15,2013-03-07 18:10:00,
2013-03-07 11:15:00,36.0,17.7,29.99,South,174,8.0,19.0,47,0.00,,,0.00,Wunderground v.1.15,2013-03-07 18:15:00,
2013-03-07 11:25:00,36.3,18.0,29.99,SE,143,5.0,9.0,47,0.00,,,0.00,Wunderground v.1.15,2013-03-07 18:25:00,
2013-03-07 11:34:00,36.7,17.8,29.99,SSE,153,7.0,7.0,46,0.00,,,0.00,Wunderground v.1.15,2013-03-07 18:34:00,
2013-03-07 11:40:00,36.6,17.2,29.99,SSE,153,6.0,19.0,45,0.00,,,0.00,Wunderground v.1.15,2013-03-07 18:40:00,
2013-03-07 11:45:00,36.7,17.8,29.99,SSE,149,7.0,19.0,46,0.00,,,0.00,Wunderground v.1.15,2013-03-07 18:45:00,
2013-03-07 11:50:00,37.2,18.3,29.99,SSE,148,8.0,19.0,46,0.00,,,0.00,Wunderground v.1.15,2013-03-07 18:50:00,
2013-03-07 11:55:00,37.0,18.1,29.99,SE,131,9.0,19.0,46,0.00,,,0.00,Wunderground v.1.15,2013-03-07 18:55:00,
2013-03-07 12:00:00,37.0,17.1,29.99,SE,128,8.0,8.0,44,0.00,,,0.00,Wunderground v.1.15,2013-03-07 19:00:00,
2013-03-07 12:10:00,37.1,16.6,29.99,SSE,158,5.0,5.0,43,0.00,,,0.00,Wunderground v.1.15,2013-03-07 19:10:00,
2013-03-07 12:15:00,36.8,16.9,29.99,SE,137,5.0,7.0,44,0.00,,,0.00,Wunderground v.1.15,2013-03-07 19:15:00,
2013-03-07 12:20:00,36.5,16.6,29.99,SSE,153,7.0,19.0,44,0.00,,,0.00,Wunderground v.1.15,2013-03-07 19:20:00,
2013-03-07 12:25:00,36.4,16.0,29.99,SSE,150,8.0,19.0,43,0.00,,,0.00,Wunderground v.1.15,2013-03-07 19:25:00,
2013-03-07 12:30:00,36.6,16.7,29.99,SSE,155,7.0,19.0,44,0.00,,,0.00,Wunderground v.1.15,2013-03-07 19:30:00,
2013-03-07 12:35:00,36.7,16.8,29.98,South,191,9.0,19.0,44,0.00,,,0.00,Wunderground v.1.15,2013-03-07 19:35:00,
2013-03-07 12:40:00,37.1,16.6,29.98,SSE,150,8.0,8.0,43,0.00,,,0.00,Wunderground v.1.15,2013-03-07 19:40:00,
2013-03-07 12:49:00,36.9,16.5,29.98,WSW,238,8.0,8.0,43,0.00,,,0.00,Wunderground v.1.15,2013-03-07 19:49:00,
2013-03-07 12:55:00,37.3,16.3,29.99,SSE,148,7.0,19.0,42,0.00,,,0.00,Wunderground v.1.15,2013-03-07 19:55:00,
2013-03-07 13:00:00,37.1,16.6,29.98,SSE,158,7.0,19.0,43,0.00,,,0.00,Wunderground v.1.15,2013-03-07 20:00:00,
2013-03-07 13:09:00,37.5,15.9,29.98,ESE,123,9.0,9.0,41,0.00,,,0.00,Wunderground v.1.15,2013-03-07 20:09:00,
2013-03-07 13:14:00,37.6,16.5,29.98,SE,130,7.0,19.0,42,0.00,,,0.00,Wunderground v.1.15,2013-03-07 20:14:00,
2013-03-07 13:19:00,37.5,15.3,29.98,SE,131,8.0,8.0,40,0.00,,,0.00,Wunderground v.1.15,2013-03-07 20:19:00,
2013-03-07 13:25:00,38.0,16.4,29.98,South,188,7.0,19.0,41,0.00,,,0.00,Wunderground v.1.15,2013-03-07 20:25:00,
2013-03-07 13:30:00,38.1,15.9,29.97,SSW,193,4.0,19.0,40,0.00,,,0.00,Wunderground v.1.15,2013-03-07 20:30:00,
2013-03-07 13:39:00,39.0,15.5,29.97,SSW,213,5.0,5.0,38,0.00,,,0.00,Wunderground v.1.15,2013-03-07 20:39:00,
2013-03-07 13:44:00,38.8,15.3,29.97,SSE,153,3.0,19.0,38,0.00,,,0.00,Wunderground v.1.15,2013-03-07 20:44:00,
2013-03-07 13:50:00,38.7,14.6,29.96,SW,231,2.0,19.0,37,0.00,,,0.00,Wunderground v.1.15,2013-03-07 20:50:00,
2013-03-07 13:55:00,38.4,15.6,29.96,SSE,160,2.0,19.0,39,0.00,,,0.00,Wunderground v.1.15,2013-03-07 20:55:00,
2013-03-07 14:00:00,38.4,13.7,29.97,SW,229,2.0,2.0,36,0.00,,,0.00,Wunderground v.1.15,2013-03-07 21:00:00,
2013-03-07 14:05:00,38.2,14.2,29.96,SE,124,2.0,3.0,37,0.00,,,0.00,Wunderground v.1.15,2013-03-07 21:05:00,
2013-03-07 14:10:00,38.0,14.0,29.96,ESE,116,3.0,19.0,37,0.00,,,0.00,Wunderground v.1.15,2013-03-07 21:10:00,
2013-03-07 14:20:00,38.1,14.1,29.96,ESE,121,3.0,19.0,37,0.00,,,0.00,Wunderground v.1.15,2013-03-07 21:20:00,
2013-03-07 14:29:00,37.9,14.5,29.96,SSE,149,3.0,3.0,38,0.00,,,0.00,Wunderground v.1.15,2013-03-07 21:29:00,
2013-03-07 14:35:00,38.1,15.3,29.96,SSE,155,2.0,19.0,39,0.00,,,0.00,Wunderground v.1.15,2013-03-07 21:35:00,
2013-03-07 14:40:00,38.1,14.1,29.96,WSW,248,2.0,19.0,37,0.00,,,0.00,Wunderground v.1.15,2013-03-07 21:40:00,
2013-03-07 14:45:00,38.0,14.0,29.96,SW,228,2.0,19.0,37,0.00,,,0.00,Wunderground v.1.15,2013-03-07 21:45:00,
2013-03-07 14:55:00,38.4,14.4,29.96,SSW,204,1.0,19.0,37,0.00,,,0.00,Wunderground v.1.15,2013-03-07 21:55:00,
2013-03-07 15:00:00,38.7,13.4,29.96,WSW,249,2.0,19.0,35,0.00,,,0.00,Wunderground v.1.15,2013-03-07 22:00:00,
2013-03-07 15:05:00,38.6,13.9,29.96,West,260,4.0,19.0,36,0.00,,,0.00,Wunderground v.1.15,2013-03-07 22:05:00,
2013-03-07 15:14:00,38.3,13.0,29.96,WNW,295,5.0,19.0,35,0.00,,,0.00,Wunderground v.1.15,2013-03-07 22:14:00,
2013-03-07 15:20:00,38.1,13.5,29.97,West,270,6.0,6.0,36,0.00,,,0.00,Wunderground v.1.15,2013-03-07 22:20:00,
2013-03-07 15:24:00,38.0,14.0,29.97,WSW,245,6.0,19.0,37,0.00,,,0.00,Wunderground v.1.15,2013-03-07 22:24:00,
2013-03-07 15:30:00,37.9,13.9,29.97,West,270,4.0,19.0,37,0.00,,,0.00,Wunderground v.1.15,2013-03-07 22:30:00,
2013-03-07 15:35:00,37.8,13.8,29.97,WSW,255,4.0,19.0,37,0.00,,,0.00,Wunderground v.1.15,2013-03-07 22:35:00,
2013-03-07 15:40:00,37.7,13.7,29.97,West,271,5.0,19.0,37,0.00,,,0.00,Wunderground v.1.15,2013-03-07 22:40:00,
2013-03-07 15:45:00,37.6,13.0,29.97,WSW,250,5.0,19.0,36,0.00,,,0.00,Wunderground v.1.15,2013-03-07 22:45:00,
2013-03-07 15:50:00,37.6,13.0,29.97,WNW,294,5.0,5.0,36,0.00,,,0.00,Wunderground v.1.15,2013-03-07 22:50:00,
2013-03-07 15:59:00,37.6,13.6,29.97,WNW,285,4.0,4.0,37,0.00,,,0.00,Wunderground v.1.15,2013-03-07 22:59:00,
2013-03-07 16:04:00,37.5,14.2,29.97,WNW,296,3.0,19.0,38,0.00,,,0.00,Wunderground v.1.15,2013-03-07 23:04:00,
2013-03-07 16:09:00,37.4,14.1,29.97,SW,228,2.0,19.0,38,0.00,,,0.00,Wunderground v.1.15,2013-03-07 23:09:00,
2013-03-07 16:15:00,37.2,13.3,29.97,West,276,3.0,19.0,37,0.00,,,0.00,Wunderground v.1.15,2013-03-07 23:15:00,
2013-03-07 16:20:00,37.3,13.4,29.97,SSW,208,2.0,19.0,37,0.00,,,0.00,Wunderground v.1.15,2013-03-07 23:20:00,
2013-03-07 16:25:00,37.3,14.0,29.97,WSW,238,1.0,19.0,38,0.00,,,0.00,Wunderground v.1.15,2013-03-07 23:25:00,
2013-03-07 16:30:00,37.9,13.9,29.97,SSE,164,1.0,1.0,37,0.00,,,0.00,Wunderground v.1.15,2013-03-07 23:30:00,
2013-03-07 16:40:00,38.4,13.1,29.97,West,259,1.0,1.0,35,0.00,,,0.00,Wunderground v.1.15,2013-03-07 23:40:00,
2013-03-07 16:45:00,38.6,13.3,29.97,WSW,252,1.0,3.0,35,0.00,,,0.00,Wunderground v.1.15,2013-03-07 23:45:00,
2013-03-07 16:54:00,38.8,13.4,29.97,WSW,242,2.0,19.0,35,0.00,,,0.00,Wunderground v.1.15,2013-03-07 23:54:00,
2013-03-07 17:00:00,39.0,13.6,29.97,SW,222,2.0,2.0,35,0.00,,,0.00,Wunderground v.1.15,2013-03-08 00:00:00,
2013-03-07 17:05:00,39.2,14.4,29.97,WSW,238,2.0,19.0,36,0.00,,,0.00,Wunderground v.1.15,2013-03-08 00:05:00,
2013-03-07 17:15:00,38.3,14.3,29.97,West,264,3.0,19.0,37,0.00,,,0.00,Wunderground v.1.15,2013-03-08 00:15:00,
2013-03-07 17:20:00,38.0,14.0,29.97,WSW,243,2.0,2.0,37,0.00,,,0.00,Wunderground v.1.15,2013-03-08 00:20:00,
2013-03-07 17:25:00,37.8,14.4,29.97,SW,226,2.0,19.0,38,0.00,,,0.00,Wunderground v.1.15,2013-03-08 00:25:00,
2013-03-07 17:34:00,37.3,14.0,29.97,WNW,291,2.0,19.0,38,0.00,,,0.00,Wunderground v.1.15,2013-03-08 00:34:00,
2013-03-07 17:39:00,37.1,13.8,29.97,WSW,240,2.0,2.0,38,0.00,,,0.00,Wunderground v.1.15,2013-03-08 00:39:00,
2013-03-07 17:44:00,36.9,14.2,29.97,WSW,255,1.0,19.0,39,0.00,,,0.00,Wunderground v.1.15,2013-03-08 00:44:00,
2013-03-07 17:50:00,36.7,14.0,29.98,SW,226,1.0,1.0,39,0.00,,,0.00,Wunderground v.1.15,2013-03-08 00:50:00,
2013-03-07 17:55:00,36.5,13.3,29.98,SW,226,0.0,19.0,38,0.00,,,0.00,Wunderground v.1.15,2013-03-08 00:55:00,
2013-03-07 18:00:00,36.2,15.8,29.98,East,96,0.0,19.0,43,0.00,,,0.00,Wunderground v.1.15,2013-03-08 01:00:00,
2013-03-07 18:05:00,35.5,17.7,29.98,ENE,77,1.0,19.0,48,0.00,,,0.00,Wunderground v.1.15,2013-03-08 01:05:00,
2013-03-07 18:14:00,34.6,18.3,29.99,East,82,1.0,19.0,51,0.00,,,0.00,Wunderground v.1.15,2013-03-08 01:14:00,
2013-03-07 18:24:00,34.2,17.5,29.99,ESE,103,0.0,19.0,50,0.00,,,0.00,Wunderground v.1.15,2013-03-08 01:24:00,
2013-03-07 18:30:00,34.0,17.7,29.99,ESE,112,0.0,19.0,51,0.00,,,0.00,Wunderground v.1.15,2013-03-08 01:30:00,
2013-03-07 18:35:00,33.9,17.7,29.99,ESE,111,1.0,19.0,51,0.00,,,0.00,Wunderground v.1.15,2013-03-08 01:35:00,
2013-03-07 18:40:00,33.8,17.1,29.99,ESE,115,2.0,2.0,50,0.00,,,0.00,Wunderground v.1.15,2013-03-08 01:40:00,
2013-03-07 18:45:00,33.7,17.5,29.99,ESE,121,0.0,19.0,51,0.00,,,0.00,Wunderground v.1.15,2013-03-08 01:45:00,
2013-03-07 18:55:00,32.6,17.3,29.99,ESE,122,0.0,19.0,53,0.00,,,0.00,Wunderground v.1.15,2013-03-08 01:55:00,
2013-03-07 19:00:00,32.1,17.3,29.99,SSE,153,0.0,19.0,54,0.00,,,0.00,Wunderground v.1.15,2013-03-08 02:00:00,
2013-03-07 19:09:00,31.1,17.2,30.00,SSE,159,0.0,19.0,56,0.00,,,0.00,Wunderground v.1.15,2013-03-08 02:09:00,
2013-03-07 19:15:00,30.7,17.3,30.00,SSE,165,0.0,19.0,57,0.00,,,0.00,Wunderground v.1.15,2013-03-08 02:15:00,
2013-03-07 19:25:00,30.0,17.0,30.00,South,172,0.0,19.0,58,0.00,,,0.00,Wunderground v.1.15,2013-03-08 02:25:00,
2013-03-07 19:35:00,29.8,17.6,30.00,West,266,0.0,19.0,60,0.00,,,0.00,Wunderground v.1.15,2013-03-08 02:35:00,
2013-03-07 19:40:00,29.8,17.6,30.00,West,266,0.0,19.0,60,0.00,,,0.00,Wunderground v.1.15,2013-03-08 02:40:00,
2013-03-07 19:49:00,29.6,17.4,30.00,WSW,240,1.0,1.0,60,0.00,,,0.00,Wunderground v.1.15,2013-03-08 02:49:00,
2013-03-07 19:55:00,29.5,17.3,30.00,WNW,288,0.0,19.0,60,0.00,,,0.00,Wunderground v.1.15,2013-03-08 02:55:00,
2013-03-07 20:05:00,29.2,17.4,30.01,West,270,0.0,19.0,61,0.00,,,0.00,Wunderground v.1.15,2013-03-08 03:05:00,
2013-03-07 20:10:00,28.9,17.5,30.01,West,270,0.0,19.0,62,0.00,,,0.00,Wunderground v.1.15,2013-03-08 03:10:00,
2013-03-07 20:15:00,28.4,17.4,30.01,WSW,239,0.0,19.0,63,0.00,,,0.00,Wunderground v.1.15,2013-03-08 03:15:00,
2013-03-07 20:20:00,28.4,17.0,30.01,SW,231,2.0,19.0,62,0.00,,,0.00,Wunderground v.1.15,2013-03-08 03:20:00,
2013-03-07 20:29:00,28.6,16.8,30.01,West,266,2.0,19.0,61,0.00,,,0.00,Wunderground v.1.15,2013-03-08 03:29:00,
2013-03-07 20:34:00,28.7,17.3,30.01,West,262,2.0,19.0,62,0.00,,,0.00,Wunderground v.1.15,2013-03-08 03:34:00,
2013-03-07 20:39:00,28.5,17.1,30.01,SW,233,1.0,19.0,62,0.00,,,0.00,Wunderground v.1.15,2013-03-08 03:39:00,
2013-03-07 20:44:00,28.6,17.2,30.01,WSW,257,1.0,19.0,62,0.00,,,0.00,Wunderground v.1.15,2013-03-08 03:44:00,
2013-03-07 20:50:00,28.5,17.5,30.01,West,275,1.0,19.0,63,0.00,,,0.00,Wunderground v.1.15,2013-03-08 03:50:00,
2013-03-07 20:55:00,28.2,17.2,30.01,WNW,293,1.0,19.0,63,0.00,,,0.00,Wunderground v.1.15,2013-03-08 03:55:00,
2013-03-07 21:00:00,27.8,17.2,30.01,SW,219,2.0,19.0,64,0.00,,,0.00,Wunderground v.1.15,2013-03-08 04:00:00,
2013-03-07 21:10:00,27.6,17.4,30.01,WSW,257,1.0,1.0,65,0.00,,,0.00,Wunderground v.1.15,2013-03-08 04:10:00,
2013-03-07 21:19:00,27.4,16.8,30.02,WSW,245,1.0,19.0,64,0.00,,,0.00,Wunderground v.1.15,2013-03-08 04:19:00,
2013-03-07 21:25:00,27.3,16.7,30.02,West,264,1.0,19.0,64,0.00,,,0.00,Wunderground v.1.15,2013-03-08 04:25:00,
2013-03-07 21:30:00,27.2,16.3,30.02,West,273,1.0,19.0,63,0.00,,,0.00,Wunderground v.1.15,2013-03-08 04:30:00,
2013-03-07 21:35:00,27.1,15.8,30.02,West,267,2.0,19.0,62,0.00,,,0.00,Wunderground v.1.15,2013-03-08 04:35:00,
2013-03-07 21:40:00,27.1,15.4,30.02,WSW,245,2.0,2.0,61,0.00,,,0.00,Wunderground v.1.15,2013-03-08 04:40:00,
2013-03-07 21:49:00,26.9,15.2,30.02,West,274,2.0,2.0,61,0.00,,,0.00,Wunderground v.1.15,2013-03-08 04:49:00,
2013-03-07 21:54:00,26.8,15.1,30.03,WNW,294,2.0,3.0,61,0.00,,,0.00,Wunderground v.1.15,2013-03-08 04:54:00,
2013-03-07 21:59:00,26.7,15.0,30.02,WSW,250,2.0,19.0,61,0.00,,,0.00,Wunderground v.1.15,2013-03-08 04:59:00,
2013-03-07 22:05:00,26.6,14.9,30.03,SW,233,2.0,19.0,61,0.00,,,0.00,Wunderground v.1.15,2013-03-08 05:05:00,
2013-03-07 22:10:00,26.6,14.9,30.03,West,262,2.0,2.0,61,0.00,,,0.00,Wunderground v.1.15,2013-03-08 05:10:00,
2013-03-07 22:15:00,26.4,14.8,30.03,West,264,2.0,19.0,61,0.00,,,0.00,Wunderground v.1.15,2013-03-08 05:15:00,
2013-03-07 22:20:00,26.3,14.7,30.03,WNW,288,2.0,19.0,61,0.00,,,0.00,Wunderground v.1.15,2013-03-08 05:20:00,
2013-03-07 22:25:00,26.1,14.5,30.03,West,276,3.0,19.0,61,0.00,,,0.00,Wunderground v.1.15,2013-03-08 05:25:00,
2013-03-07 22:30:00,25.9,14.7,30.03,West,260,3.0,19.0,62,0.00,,,0.00,Wunderground v.1.15,2013-03-08 05:30:00,
2013-03-07 22:35:00,25.8,14.2,30.03,WSW,242,4.0,19.0,61,0.00,,,0.00,Wunderground v.1.15,2013-03-08 05:35:00,
2013-03-07 22:44:00,25.6,14.0,30.03,West,278,3.0,19.0,61,0.00,,,0.00,Wunderground v.1.15,2013-03-08 05:44:00,
2013-03-07 22:49:00,25.5,13.9,30.03,WNW,291,3.0,19.0,61,0.00,,,0.00,Wunderground v.1.15,2013-03-08 05:49:00,
2013-03-07 22:55:00,25.5,13.5,30.03,West,271,3.0,19.0,60,0.00,,,0.00,Wunderground v.1.15,2013-03-08 05:55:00,
2013-03-07 23:00:00,25.5,13.5,30.03,WNW,288,4.0,19.0,60,0.00,,,0.00,Wunderground v.1.15,2013-03-08 06:00:00,
2013-03-07 23:05:00,25.4,13.1,30.03,West,269,4.0,19.0,59,0.00,,,0.00,Wunderground v.1.15,2013-03-08 06:05:00,
2013-03-07 23:10:00,25.2,13.2,30.03,West,264,5.0,19.0,60,0.00,,,0.00,Wunderground v.1.15,2013-03-08 06:10:00,
2013-03-07 23:15:00,25.1,13.5,30.03,WNW,293,5.0,19.0,61,0.00,,,0.00,Wunderground v.1.15,2013-03-08 06:15:00,
2013-03-07 23:20:00,25.0,13.4,30.03,West,276,4.0,19.0,61,0.00,,,0.00,Wunderground v.1.15,2013-03-08 06:20:00,
2013-03-07 23:24:00,25.0,13.4,30.03,West,273,5.0,19.0,61,0.00,,,0.00,Wunderground v.1.15,2013-03-08 06:24:00,
2013-03-07 23:29:00,24.7,13.5,30.03,WNW,301,5.0,19.0,62,0.00,,,0.00,Wunderground v.1.15,2013-03-08 06:29:00,
2013-03-07 23:34:00,24.5,13.3,30.02,WNW,293,5.0,19.0,62,0.00,,,0.00,Wunderground v.1.15,2013-03-08 06:34:00,
2013-03-07 23:39:00,24.4,13.6,30.02,West,270,4.0,4.0,63,0.00,,,0.00,Wunderground v.1.15,2013-03-08 06:39:00,
2013-03-07 23:45:00,24.3,13.5,30.02,West,273,4.0,5.0,63,0.00,,,0.00,Wunderground v.1.15,2013-03-08 06:45:00,
2013-03-07 23:50:00,24.2,13.0,30.02,WSW,244,5.0,19.0,62,0.00,,,0.00,Wunderground v.1.15,2013-03-08 06:50:00,
2013-03-07 23:55:00,24.1,13.3,30.02,WSW,257,5.0,19.0,63,0.00,,,0.00,Wunderground v.1.15,2013-03-08 06:55:00,